DELTA 1 DEB, 19291

Orbit data source: Space-Track

DELTA 1 DEB, 19291 is space debris in SSO originally from a launch on Tue, 06 Nov 1973 UTC launched from the Air Force Western Test Range (AFWTR). Debris objects in space refer to the collection of defunct objects orbiting the Earth. Examples of debris include non-operational satellites, rocket bodies, and fragments generated from explosions, collisions, or faulty payload assembly.

Loading next visibility...
Identifier
19291, 1973-086HD
Orbit
SSO
Country
Flag of USUS
Related business
Manufacturer
Unknown
Mission
Spacecraft
Bus & Motor
Unknown
Mass
Unknown
Launch date (UTC)
1973-11-06 (52 years ago)
Launch vehicle
Unknown
Launch site
Air Force Western Test Range (AFWTR)
Object type
Payload
Rocket body
Debris
Shape & HBR
Unknown shape, 0.1 m
Radar Cross Section
Small (<0.1 m²)

Expand to show TLE details & history
Last TLE update: 8 hours ago

TLE from 8 hours ago
0 DELTA 1 DEB
1 19291U 73086HD  26034.39696417  .00000200  00000-0  15735-2 0  9991
2 19291 101.8225  13.8069 0033818  53.0567 103.1895 12.51565922716749
Epoch: 2026-02-03T09:31Z
TLE epoch observation values (Epoch: 2026-02-03T09:31:37.704Z)
Latitude
22.87144°
Longitude
-77.63794°
Altitude
1,466.553 km
Speed
7.129 km/s
True Right ascension
13h 15m 23s
True Declination
22° 45' 35"
Sunlit
Object was in daylight at epoch
Visualization orbit readout
Latitude
Unknown
Longitude
Unknown
Altitude
Unknown
Speed
Unknown
Apparent Right ascension
Unknown
Apparent Declination
Unknown
Sunlit
N/A
Visualization observer readout
Local Sidereal Time
19:37:32
Azimuth
Unknown
Elevation
Unknown
Doppler factor
Unknown
Orbital elements
Apogee altitude
1,481.993 km
Perigee altitude
1,429.009 km
Semi-major axis
7,833.638 km
Eccentricity
0.00338
Inclination
101.8225°
RAAN
13.8069°
Arg. of periapsis
53.0567°
True anomaly
103.56644°
Mean anomaly
103.1895°
Eccentric anomaly
103.37801°
Mean motion
3.13039 °/min
Orbital period
115 mins
BSTAR
0.0015735
Loading maneuver chart data...
Computing Atmospheric mass density...

Documentation

Showing up to 5 results
|